Weather History for Marrakech, Morocco

Change the Weather History Date:

Saturday, August 31, 2013

  Actual Average Record
Temperature  
Mean Temperature 81 °F -  
Max Temperature 96 °F 88 °F 105 °F (2006)
Min Temperature 66 °F 64 °F 60 °F (1996)
Cooling Degree Days 16    
Growing Degree Days 31 (Base 50)    
Moisture  
Dew Point 59 °F    
Average Humidity 52    
Maximum Humidity 83    
Minimum Humidity 14    
Precipitation  
Precipitation 0.00 in 0.01 in - ()
Sea Level Pressure  
Sea Level Pressure 30.01 in    
Wind  
Wind Speed 4 mph ()    
Max Wind Speed 13 mph    
Max Gust Speed -    
Visibility 6.1 miles    
Events      
Averages and records for this station are not official NWS values.
T = Trace of Precipitation, MM = Missing Value Source: Averaged Metar Reports

Daily Weather History Graph

Daily Weather History Graph

Search for Another Location

Airport:

Trip Planner

Search our weather history database for the weather conditions in past years. The results will help you decide how hot, cold, wet, or windy it might be!

Date:

Astronomy

Aug. 31, 2013 Rise Set
Actual Time 7:07 AM WEST 7:57 PM WEST
Civil Twilight 6:42 AM WEST 8:21 PM WEST
Nautical Twilight 6:13 AM WEST 8:51 PM WEST
Astronomical Twilight 5:42 AM WEST 9:21 PM WEST
Moon 2:35 AM WEST (8/31) 4:36 PM WEST (8/31)
Length of Visible Light 13h 39m
Length of Day
12h 49m
Waning Crescent, 23% of the Moon is Illuminated
Aug 31
Waning Crescent
Sep 5
New
Sep 12
First Quarter
Sep 19
Full
Sep 27
Last Quarter

Hourly Weather History & Observations

Time (WEST) Temp. Heat Index Dew Point Humidity Pressure Visibility Wind Dir Wind Speed Gust Speed Precip Events Conditions
12:00 AM 77.0 °F - 62.6 °F 61% 30.06 in - NNE 3.5 mph - N/A   Clear
12:30 AM 77.0 °F - 62.6 °F 61% 30.06 in - Calm Calm - N/A   Clear
1:00 AM 73 °F - 62 °F 61% 30.02 in 6 mi SW 6.9 mph - -  
1:00 AM 73.4 °F - 62.6 °F 69% 30.06 in - SW 6.9 mph - N/A   Clear
1:30 AM 71.6 °F - 62.6 °F 73% 30.06 in - WSW 5.8 mph - N/A   Clear
2:00 AM 71.6 °F - 60.8 °F 69% 30.06 in - West 3.5 mph - N/A   Clear
2:30 AM 71.6 °F - 62.6 °F 73% 30.06 in - SW 4.6 mph - N/A   Clear
3:00 AM 71.6 °F - 62.6 °F 73% 30.04 in - SW 5.8 mph - N/A   Clear
3:30 AM 69.8 °F - 62.6 °F 78% 30.04 in 6.2 mi SW 4.6 mph - N/A   Unknown
4:00 AM 69 °F - 62 °F 71% 29.99 in 6 mi WSW 3.5 mph - -  
4:00 AM 69.8 °F - 60.8 °F 73% 30.04 in 6.2 mi West 3.5 mph - N/A   Unknown
4:30 AM 68.0 °F - 60.8 °F 78% 30.04 in 6.2 mi SW 3.5 mph - N/A   Unknown
5:00 AM 69.8 °F - 62.6 °F 78% 30.01 in 6.2 mi WSW 2.3 mph - N/A   Unknown
5:30 AM 68.0 °F - 62.6 °F 83% 30.01 in - WSW 3.5 mph - N/A   Clear
6:00 AM 66.2 °F - 60.8 °F 83% 30.01 in - WSW 4.6 mph - N/A   Clear
6:30 AM 66.2 °F - 60.8 °F 83% 30.01 in - WSW 3.5 mph - N/A   Clear
7:00 AM 66 °F - 60 °F 77% 29.98 in 6 mi WSW 3.5 mph - -  
7:00 AM 66.2 °F - 60.8 °F 83% 30.01 in - WSW 3.5 mph - N/A   Clear
7:30 AM 66.2 °F - 60.8 °F 83% 30.04 in - WSW 2.3 mph - N/A   Clear
8:00 AM 68.0 °F - 60.8 °F 78% 30.04 in - WSW 3.5 mph - N/A   Clear
8:30 AM 69.8 °F - 62.6 °F 78% 30.04 in - West 3.5 mph - N/A   Clear
9:00 AM 73.4 °F - 62.6 °F 69% 30.04 in - WNW 4.6 mph - N/A   Clear
9:30 AM 73.4 °F - 62.6 °F 69% 30.04 in - West 4.6 mph - N/A   Clear
10:00 AM 75 °F - 64 °F 60% 29.98 in 6 mi WNW 4.6 mph - -  
10:00 AM 75.2 °F - 64.4 °F 69% 30.04 in - Variable 3.5 mph - N/A   Clear
10:30 AM 77.0 °F - 64.4 °F 65% 30.06 in - WNW 5.8 mph - N/A   Clear
11:00 AM 77.0 °F - 64.4 °F 65% 30.04 in - WSW 5.8 mph - N/A   Clear
11:30 AM 80.6 °F 81.5 °F 60.8 °F 51% 30.06 in - North 4.6 mph - N/A   Clear
12:00 PM 82.4 °F 83.4 °F 62.6 °F 51% 30.04 in - NW 4.6 mph - N/A   Clear
12:30 PM 84.2 °F 85.0 °F 62.6 °F 48% 30.04 in - Variable 4.6 mph - N/A   Clear
1:00 PM 86 °F - 61 °F 33% 29.94 in 6 mi NNW 4.6 mph - -  
1:00 PM 86.0 °F 86.1 °F 60.8 °F 43% 30.04 in - Variable 4.6 mph - N/A   Clear
1:30 PM 87.8 °F 87.6 °F 60.8 °F 40% 30.04 in - Variable 4.6 mph - N/A   Clear
2:00 PM 87.8 °F 87.1 °F 59.0 °F 38% 30.01 in - Variable 5.8 mph - N/A   Clear
2:30 PM 91.4 °F 90.7 °F 59.0 °F 34% 30.01 in - Variable 4.6 mph - N/A   Clear
3:00 PM 91.4 °F 89.4 °F 55.4 °F 29% 30.01 in - North 4.6 mph - N/A   Clear
3:30 PM 91.4 °F 89.9 °F 57.2 °F 31% 29.98 in - East 5.8 mph - N/A   Clear
4:00 PM 94 °F - 56 °F 19% 29.87 in 6 mi North 6.9 mph - -   Scattered Clouds
4:00 PM 93.2 °F 91.3 °F 55.4 °F 28% 29.98 in 6.2 mi North 6.9 mph - N/A   Partly Cloudy
4:30 PM 95.0 °F 93.0 °F 55.4 °F 26% 29.98 in 6.2 mi Variable 3.5 mph - N/A   Partly Cloudy
5:00 PM 95.0 °F 92.7 °F 53.6 °F 25% 29.98 in 6.2 mi ENE 3.5 mph - N/A   Partly Cloudy
5:30 PM 96.8 °F - 51.8 °F 22% 29.98 in 6.2 mi Variable 5.8 mph - N/A   Partly Cloudy
6:00 PM 96.8 °F - 51.8 °F 22% 29.98 in 6.2 mi Variable 4.6 mph - N/A   Partly Cloudy
6:30 PM 96.8 °F - 51.8 °F 22% 29.95 in 6.2 mi Variable 2.3 mph - N/A   Partly Cloudy
7:00 PM 96 °F - 52 °F 14% 29.84 in 6 mi NW 3.5 mph - -   Scattered Clouds
7:00 PM 96.8 °F - 51.8 °F 22% 29.95 in 6.2 mi NW 3.5 mph - N/A   Partly Cloudy
7:30 PM 95.0 °F 92.7 °F 53.6 °F 25% 29.98 in 6.2 mi NW 5.8 mph - N/A   Partly Cloudy
8:00 PM 93.2 °F - 50.0 °F 23% 29.98 in 6.2 mi NNW 6.9 mph - N/A   Partly Cloudy
8:30 PM 91.4 °F - 46.4 °F 21% 29.98 in 6.2 mi NNW 6.9 mph - N/A   Partly Cloudy
9:00 PM 89.6 °F - 46.4 °F 22% 29.98 in 6.2 mi North 4.6 mph - N/A   Partly Cloudy
9:30 PM 87.8 °F 87.6 °F 60.8 °F 40% 30.01 in 6.2 mi North 12.7 mph - N/A   Partly Cloudy
10:00 PM 86.0 °F 86.1 °F 60.8 °F 43% 30.01 in 6.2 mi North 10.4 mph - N/A   Partly Cloudy
10:30 PM 84.2 °F 84.4 °F 60.8 °F 45% 30.01 in 6.2 mi NNE 10.4 mph - N/A   Partly Cloudy
11:00 PM 82.4 °F 82.5 °F 59.0 °F 45% 30.04 in - NNE 11.5 mph - N/A   Clear
11:30 PM 82.4 °F 82.5 °F 59.0 °F 45% 30.04 in - NNE 9.2 mph - N/A   Clear